Hays, KS

10:15 PM CST on November 19, 2017 (GMT -0600)
Hays Regional

Weather History for KHYS - April, 2013

Change the Weather History Date:

Tuesday, April 30, 2013

  Actual Average Record
Temperature  
Mean Temperature 70 °F -  
Max Temperature 80 °F 66 °F 86 °F (2008)
Min Temperature 59 °F 43 °F 28 °F (2005)
Cooling Degree Days 4    
Growing Degree Days 20 (Base 50)    
Moisture  
Dew Point 51 °F    
Average Humidity 52    
Maximum Humidity 73    
Minimum Humidity 32    
Precipitation  
Precipitation 0.00 in - - ()
Sea Level Pressure  
Sea Level Pressure 29.62 in    
Wind  
Wind Speed 13 mph (SE)    
Max Wind Speed 22 mph    
Max Gust Speed 26 mph    
Visibility 10 miles    
Events      
Averages and records for this station are not official NWS values.
T = Trace of Precipitation, MM = Missing Value Source: NWS Daily Summary

Daily Weather History Graph

Daily Weather History Graph

Search for Another Location

Airport or City:

Trip Planner

Search our weather history database for the weather conditions in past years. The results will help you decide how hot, cold, wet, or windy it might be!

Date:

Astronomy

Apr. 30, 2013 Rise Set
Actual Time 6:40 AM CDT 8:28 PM CDT
Civil Twilight 6:11 AM CDT 8:57 PM CDT
Nautical Twilight 5:36 AM CDT 9:32 PM CDT
Astronomical Twilight 4:59 AM CDT 10:09 PM CDT
Moon 12:52 AM CDT (4/30) 11:11 AM CDT (4/30)
Length of Visible Light 14h 46m
Length of Day
13h 48m
Waning Gibbous, 70% of the Moon is Illuminated
Apr 30
Waning Gibbous
May 2
Last Quarter
May 9
New
May 17
First Quarter
May 24
Full

Hourly Weather History & Observations

Time (CDT) Temp. Heat Index Dew Point Humidity Pressure Visibility Wind Dir Wind Speed Gust Speed Precip Events Conditions
12:15 AM 59.0 °F - 42.8 °F 55% 29.56 in 10.0 mi South 9.2 mph - N/A   Clear
12:35 AM 64.4 °F - 44.6 °F 49% 29.56 in 10.0 mi SSW 12.7 mph - N/A   Clear
12:55 AM 66.2 °F - 42.8 °F 43% 29.56 in 10.0 mi SSW 13.8 mph - N/A   Clear
1:15 AM 69.8 °F - 41.0 °F 35% 29.56 in 10.0 mi South 20.7 mph 25.3 mph N/A   Clear
1:35 AM 71.6 °F - 41.0 °F 33% 29.57 in 10.0 mi South 19.6 mph 26.5 mph N/A   Clear
1:55 AM 69.8 °F - 41.0 °F 35% 29.57 in 10.0 mi South 18.4 mph - N/A   Clear
2:15 AM 66.2 °F - 42.8 °F 43% 29.57 in 10.0 mi South 17.3 mph - N/A   Clear
2:35 AM 66.2 °F - 42.8 °F 43% 29.57 in 10.0 mi South 17.3 mph - N/A   Clear
2:55 AM 64.4 °F - 42.8 °F 45% 29.58 in 10.0 mi South 16.1 mph - N/A   Clear
3:15 AM 64.4 °F - 42.8 °F 45% 29.58 in 10.0 mi South 15.0 mph - N/A   Clear
3:35 AM 62.6 °F - 44.6 °F 52% 29.58 in 10.0 mi South 13.8 mph - N/A   Clear
3:55 AM 62.6 °F - 44.6 °F 52% 29.58 in 10.0 mi South 11.5 mph - N/A   Clear
4:15 AM 60.8 °F - 46.4 °F 59% 29.58 in 10.0 mi South 10.4 mph - N/A   Clear
4:35 AM 60.8 °F - 46.4 °F 59% 29.58 in 10.0 mi South 9.2 mph - N/A   Clear
4:55 AM 60.8 °F - 48.2 °F 63% 29.57 in 10.0 mi South 10.4 mph - N/A   Clear
5:15 AM 60.8 °F - 48.2 °F 63% 29.57 in 10.0 mi South 12.7 mph - N/A   Clear
5:35 AM 60.8 °F - 48.2 °F 63% 29.56 in 10.0 mi South 13.8 mph - N/A   Clear
5:55 AM 60.8 °F - 48.2 °F 63% 29.57 in 10.0 mi South 12.7 mph - N/A   Clear
6:15 AM 60.8 °F - 48.2 °F 63% 29.56 in 10.0 mi South 13.8 mph - N/A   Clear
6:35 AM 60.8 °F - 50.0 °F 68% 29.57 in 10.0 mi South 8.1 mph - N/A   Clear
6:55 AM 60.8 °F - 51.8 °F 72% 29.57 in 10.0 mi SSE 9.2 mph - N/A   Clear
7:15 AM 62.6 °F - 51.8 °F 68% 29.57 in 10.0 mi South 15.0 mph - N/A   Clear
7:35 AM 62.6 °F - 53.6 °F 72% 29.58 in 10.0 mi South 15.0 mph 19.6 mph N/A   Clear
7:55 AM 62.6 °F - 53.6 °F 72% 29.59 in 10.0 mi South 13.8 mph - N/A   Clear
8:15 AM 64.4 °F - 53.6 °F 68% 29.60 in 10.0 mi South 12.7 mph - N/A   Clear
8:35 AM 64.4 °F - 55.4 °F 73% 29.60 in 10.0 mi South 13.8 mph - N/A   Clear
8:55 AM 66.2 °F - 55.4 °F 68% 29.61 in 10.0 mi SSW 11.5 mph - N/A   Clear
9:15 AM 69.8 °F - 55.4 °F 60% 29.62 in 10.0 mi SSW 16.1 mph 20.7 mph N/A   Clear
9:35 AM 69.8 °F - 55.4 °F 60% 29.62 in 10.0 mi SW 13.8 mph - N/A   Clear
9:55 AM 71.6 °F - 53.6 °F 53% 29.62 in 10.0 mi SW 16.1 mph 21.9 mph N/A   Clear
10:15 AM 73.4 °F - 53.6 °F 50% 29.62 in 10.0 mi WSW 13.8 mph - N/A   Clear
10:35 AM 73.4 °F - 50.0 °F 44% 29.62 in 10.0 mi SW 11.5 mph 18.4 mph N/A   Clear
10:55 AM 75.2 °F - 50.0 °F 41% 29.62 in 10.0 mi WSW 11.5 mph - N/A   Clear
11:15 AM 75.2 °F - 48.2 °F 38% 29.63 in 10.0 mi SW 9.2 mph 16.1 mph N/A   Clear
11:35 AM 75.2 °F - 48.2 °F 38% 29.63 in 10.0 mi WNW 3.5 mph - N/A   Clear
11:55 AM 77.0 °F - 48.2 °F 36% 29.64 in 10.0 mi West 4.6 mph - N/A   Clear
12:15 PM 77.0 °F - 46.4 °F 34% 29.64 in 10.0 mi West 10.4 mph - N/A   Clear
12:35 PM 77.0 °F - 48.2 °F 36% 29.64 in 10.0 mi SW 4.6 mph - N/A   Clear
12:55 PM 78.8 °F - 46.4 °F 32% 29.65 in 10.0 mi Calm Calm - N/A   Clear
1:15 PM 78.8 °F - 51.8 °F 39% 29.64 in 10.0 mi North 13.8 mph 19.6 mph N/A   Clear
1:35 PM 77.0 °F - 51.8 °F 41% 29.64 in 10.0 mi NNE 16.1 mph 19.6 mph N/A   Clear
1:55 PM 78.8 °F - 53.6 °F 42% 29.64 in 10.0 mi North 11.5 mph 18.4 mph N/A   Clear
2:15 PM 78.8 °F - 53.6 °F 42% 29.64 in 10.0 mi NE 8.1 mph - N/A   Clear
2:35 PM 78.8 °F - 53.6 °F 42% 29.64 in 10.0 mi NNE 9.2 mph - N/A   Clear
2:55 PM 80.6 °F 80.3 °F 53.6 °F 39% 29.64 in 10.0 mi NNE 12.7 mph 18.4 mph N/A   Clear
3:15 PM 80.6 °F 80.5 °F 55.4 °F 42% 29.63 in 10.0 mi NE 13.8 mph 19.6 mph N/A   Clear
3:35 PM 80.6 °F 80.5 °F 55.4 °F 42% 29.63 in 10.0 mi NNE 13.8 mph 18.4 mph N/A   Clear
3:55 PM 80.6 °F 80.5 °F 55.4 °F 42% 29.63 in 10.0 mi NNE 13.8 mph 20.7 mph N/A   Clear
4:15 PM 80.6 °F 80.5 °F 55.4 °F 42% 29.63 in 10.0 mi NNE 13.8 mph 18.4 mph N/A   Clear
4:35 PM 80.6 °F 80.5 °F 55.4 °F 42% 29.62 in 10.0 mi North 15.0 mph 21.9 mph N/A   Clear
4:55 PM 80.6 °F 80.5 °F 55.4 °F 42% 29.62 in 10.0 mi NNE 16.1 mph - N/A   Clear
5:15 PM 80.6 °F 80.5 °F 55.4 °F 42% 29.62 in 10.0 mi NNE 17.3 mph - N/A   Clear
5:35 PM 80.6 °F 80.5 °F 55.4 °F 42% 29.62 in 10.0 mi NNE 21.9 mph - N/A   Clear
5:55 PM 80.6 °F 80.5 °F 55.4 °F 42% 29.63 in 10.0 mi NE 18.4 mph 25.3 mph N/A   Clear
6:15 PM 78.8 °F - 55.4 °F 44% 29.63 in 10.0 mi NE 17.3 mph - N/A   Clear
6:35 PM 78.8 °F - 55.4 °F 44% 29.63 in 10.0 mi NE 16.1 mph - N/A   Clear
6:55 PM 78.8 °F - 55.4 °F 44% 29.64 in 10.0 mi NE 20.7 mph 25.3 mph N/A   Clear
7:15 PM 77.0 °F - 55.4 °F 47% 29.64 in 10.0 mi NE 21.9 mph 26.5 mph N/A   Clear
7:35 PM 75.2 °F - 55.4 °F 50% 29.64 in 10.0 mi NE 18.4 mph 25.3 mph N/A   Clear
7:55 PM 73.4 °F - 55.4 °F 53% 29.64 in 10.0 mi NE 16.1 mph - N/A   Clear
8:15 PM 71.6 °F - 55.4 °F 57% 29.65 in 10.0 mi NE 15.0 mph - N/A   Clear
8:35 PM 69.8 °F - 53.6 °F 56% 29.66 in 10.0 mi NE 11.5 mph - N/A   Clear
9:15 PM 69.8 °F - 53.6 °F 56% 29.67 in 10.0 mi NNE 4.6 mph - N/A   Clear
9:35 PM 66.2 °F - 53.6 °F 64% 29.68 in 10.0 mi NE 5.8 mph - N/A   Clear
9:55 PM 66.2 °F - 55.4 °F 68% 29.69 in 10.0 mi NE 4.6 mph - N/A   Clear
10:15 PM 66.2 °F - 55.4 °F 68% 29.70 in 10.0 mi East 6.9 mph - N/A   Clear
10:35 PM 64.4 °F - 55.4 °F 73% 29.71 in 10.0 mi East 6.9 mph - N/A   Clear
10:55 PM 64.4 °F - 55.4 °F 73% 29.72 in 10.0 mi East 6.9 mph - N/A   Clear
11:15 PM 64.4 °F - 55.4 °F 73% 29.72 in 10.0 mi East 8.1 mph - N/A   Clear
11:35 PM 64.4 °F - 55.4 °F 73% 29.73 in 10.0 mi NE 5.8 mph - N/A   Clear